Powrót do katalogu

STARLINK-4640

AktywnyŁącznośćVLEO
NORAD 53728·PAYLOAD·🇺🇸 United States

Wystrzelony Sep 5, 2022 z Cape Canaveral Space Force Station

Loading…

Następne Przeloty (najbliższe 24 godziny)

TLE

ŚwieżeSource: CelesTrak SupGP

Epoka: Sep 15, 2026, 02:17 UTC

1 53728C 22107AE  26258.09562500  .00028561  00000+0  84390-3 0  2583
2 53728  53.1558 108.6843 0001224  84.1086 310.3516 15.34373712    16

Śledź STARLINK-4640 w czasie rzeczywistym z AllMySat

Download on the App Store